Location: Wald
(31.7579°N, 86.6655°W)
Time: 21:17:59
(UTC+00:00)

Resurs 01 Rocket - Pass Details

Date: 14 July 2020
Orbit: 635 x 644 km, 98.0° (Epoch: 13 August)

Event Time Altitude Azimuth Distance (km) Brightness Sun altitude
Exits shadow 03:08:51 22° 222° (SW) 1,375 3.2 -23.8°
Maximum altitude 03:10:38 30° 262° (W) 1,136 3.2 -24.0°
Drops below altitude 10° 03:14:32 10° 324° (NW) 2,024 5.3 -24.6°
Sets 03:16:57 0° 335° (NNW) 2,935 6.3 -24.9°
